• In Kazakhstan
  • List of Countries
  • For 7 days
  • Water Temperature
  • Satellite Maps
  • Weather Map
  • News
  • Weather Widgets
  • user-avatar
    Login

    Hourly Weather Semenovschina

    Today, 22 April, Monday

    Time Temperature Precipitation Wind Pressure Humidity
    00:00 +10°C° 0 mm 1 mps 750 mmHg 59%
    01:00 +10°C° 0 mm 1 mps 751 mmHg 59%
    02:00 +8°C° 0 mm 1 mps 751 mmHg 60%
    03:00 +8°C° 0 mm 1 mps 751 mmHg 62%
    04:00 +7°C° 0 mm 1 mps 751 mmHg 63%
    05:00 +7°C° 0 mm 1 mps 751 mmHg 65%
    06:00 +9°C° 0 mm 1 mps 751 mmHg 58%
    07:00 +10°C° 0 mm 0 mps 752 mmHg 52%
    08:00 +13°C° 0 mm 0 mps 752 mmHg 44%
    09:00 +15°C° 0 mm 1 mps 752 mmHg 39%
    10:00 +18°C° 0 mm 1 mps 752 mmHg 33%
    11:00 +20°C° 0 mm 1 mps 752 mmHg 28%
    12:00 +20°C° 0 mm 1 mps 752 mmHg 28%
    13:00 +20°C° 0 mm 1 mps 752 mmHg 27%
    14:00 +20°C° 0 mm 1 mps 752 mmHg 27%
    15:00 +19°C° 0 mm 1 mps 752 mmHg 29%
    16:00 +19°C° 0 mm 1 mps 752 mmHg 31%
    17:00 +17°C° 0 mm 2 mps 751 mmHg 32%
    18:00 +15°C° 0 mm 2 mps 752 mmHg 38%
    19:00 +14°C° 0 mm 1 mps 752 mmHg 44%
    20:00 +12°C° 0 mm 1 mps 752 mmHg 50%
    21:00 +11°C° 0 mm 1 mps 752 mmHg 52%
    22:00 +11°C° 0 mm 1 mps 752 mmHg 54%
    23:00 +10°C° 0 mm 1 mps 753 mmHg 56%

    Tomorrow, 23 April, Tuesday

    Time Temperature Precipitation Wind Pressure Humidity
    00:00 +10°C° 0 mm 1 mps 753 mmHg 57%
    01:00 +9°C° 0 mm 1 mps 753 mmHg 59%
    02:00 +9°C° 0 mm 1 mps 753 mmHg 60%
    03:00 +9°C° 0 mm 1 mps 753 mmHg 61%
    04:00 +9°C° 0 mm 1 mps 753 mmHg 62%
    05:00 +8°C° 0 mm 1 mps 753 mmHg 63%
    06:00 +10°C° 0 mm 1 mps 753 mmHg 58%
    07:00 +12°C° 0 mm 1 mps 753 mmHg 52%
    08:00 +14°C° 0 mm 1 mps 754 mmHg 47%
    09:00 +16°C° 0 mm 2 mps 754 mmHg 42%
    10:00 +17°C° 0 mm 2 mps 753 mmHg 37%
    11:00 +18°C° 0 mm 2 mps 753 mmHg 32%
    12:00 +19°C° 0 mm 2 mps 753 mmHg 31%
    13:00 +19°C° 0 mm 2 mps 753 mmHg 30%
    14:00 +19°C° 0 mm 2 mps 753 mmHg 30%
    15:00 +19°C° 0 mm 2 mps 753 mmHg 31%
    16:00 +20°C° 0 mm 1 mps 752 mmHg 33%
    17:00 +19°C° 0 mm 1 mps 752 mmHg 34%
    18:00 +18°C° 0 mm 1 mps 752 mmHg 39%
    19:00 +15°C° 0 mm 1 mps 752 mmHg 44%
    20:00 +13°C° 0 mm 1 mps 752 mmHg 50%
    21:00 +12°C° 0 mm 1 mps 752 mmHg 52%
    22:00 +12°C° 0 mm 1 mps 752 mmHg 55%
    23:00 +11°C° 0 mm 1 mps 753 mmHg 57%

    Day after tomorrow, 24 April, Wednesday

    Time Temperature Precipitation Wind Pressure Humidity
    00:00 +11°C° 0 mm 1 mps 753 mmHg 59%
    01:00 +10°C° 0 mm 1 mps 753 mmHg 61%
    02:00 +10°C° 0 mm 1 mps 753 mmHg 64%
    03:00 +10°C° 0 mm 1 mps 753 mmHg 65%
    04:00 +10°C° 0 mm 1 mps 753 mmHg 66%
    05:00 +10°C° 0 mm 1 mps 753 mmHg 67%
    06:00 +11°C° 0 mm 1 mps 753 mmHg 63%
    07:00 +13°C° 0 mm 1 mps 753 mmHg 58%
    08:00 +15°C° 0 mm 1 mps 753 mmHg 54%
    09:00 +16°C° 0 mm 1 mps 753 mmHg 49%
    10:00 +19°C° 0 mm 1 mps 753 mmHg 44%
    11:00 +21°C° 0 mm 1 mps 753 mmHg 38%
    12:00 +21°C° 0 mm 1 mps 753 mmHg 37%
    13:00 +22°C° 0 mm 1 mps 753 mmHg 35%
    14:00 +23°C° 0 mm 1 mps 753 mmHg 34%
    15:00 +22°C° 0 mm 1 mps 752 mmHg 35%
    16:00 +22°C° 0 mm 1 mps 752 mmHg 36%
    17:00 +22°C° 0 mm 1 mps 752 mmHg 38%
    18:00 +20°C° 0 mm 1 mps 752 mmHg 43%
    19:00 +16°C° 0 mm 0 mps 752 mmHg 48%
    20:00 +14°C° 0 mm 0 mps 752 mmHg 53%
    21:00 +13°C° 0 mm 0 mps 752 mmHg 55%
    22:00 +12°C° 0 mm 0 mps 752 mmHg 57%
    23:00 +12°C° 0 mm 0 mps 752 mmHg 58%

    25 April, Thursday

    Time Temperature Precipitation Wind Pressure Humidity
    00:00 +11°C° 0 mm 0 mps 752 mmHg 60%
    01:00 +11°C° 0 mm 0 mps 752 mmHg 62%
    02:00 +11°C° 0 mm 0 mps 752 mmHg 63%
    03:00 +10°C° 0 mm 0 mps 752 mmHg 64%
    04:00 +10°C° 0 mm 0 mps 752 mmHg 66%
    05:00 +10°C° 0 mm 0 mps 752 mmHg 67%
    06:00 +12°C° 0 mm 0 mps 752 mmHg 61%
    07:00 +14°C° 0 mm 0 mps 752 mmHg 55%
    08:00 +16°C° 0 mm 0 mps 752 mmHg 48%
    09:00 +18°C° 0 mm 0 mps 752 mmHg 44%
    10:00 +20°C° 0 mm 0 mps 752 mmHg 40%
    11:00 +23°C° 0 mm 1 mps 752 mmHg 35%
    12:00 +23°C° 0 mm 1 mps 751 mmHg 37%
    13:00 +22°C° 0 mm 1 mps 751 mmHg 38%
    14:00 +22°C° 0 mm 1 mps 751 mmHg 39%
    15:00 +21°C° 0 mm 1 mps 751 mmHg 42%
    16:00 +21°C° 0 mm 1 mps 750 mmHg 45%
    17:00 +20°C° 0 mm 1 mps 750 mmHg 49%
    18:00 +19°C° 0 mm 1 mps 750 mmHg 51%
    19:00 +18°C° 0 mm 1 mps 750 mmHg 53%
    20:00 +18°C° 0 mm 1 mps 750 mmHg 55%
    21:00 +15°C° 0 mm 0 mps 750 mmHg 56%
    22:00 +15°C° 0 mm 0 mps 750 mmHg 57%
    23:00 +15°C° 0 mm 0 mps 749 mmHg 58%

    26 April, Friday

    Time Temperature Precipitation Wind Pressure Humidity
    00:00 +14°C° 0 mm 0 mps 749 mmHg 58%
    01:00 +14°C° 0 mm 0 mps 749 mmHg 59%
    02:00 +14°C° 0 mm 0 mps 749 mmHg 60%
    03:00 +14°C° 0 mm 0 mps 749 mmHg 61%
    04:00 +13°C° 0 mm 0 mps 749 mmHg 62%
    05:00 +13°C° 0 mm 0 mps 749 mmHg 64%
    06:00 +15°C° 0 mm 1 mps 749 mmHg 61%
    07:00 +16°C° 0 mm 1 mps 749 mmHg 59%
    08:00 +18°C° 0 mm 1 mps 749 mmHg 56%
    09:00 +18°C° 0 mm 2 mps 749 mmHg 52%
    10:00 +19°C° 0 mm 2 mps 748 mmHg 47%
    11:00 +20°C° 0 mm 3 mps 748 mmHg 42%
    12:00 +20°C° 0 mm 3 mps 748 mmHg 43%
    13:00 +20°C° 0 mm 3 mps 748 mmHg 43%
    14:00 +20°C° 0 mm 3 mps 747 mmHg 43%
    15:00 +19°C° 0 mm 2 mps 747 mmHg 46%
    16:00 +18°C° 0 mm 2 mps 747 mmHg 49%
    17:00 +19°C° 0 mm 1 mps 746 mmHg 52%
    18:00 +18°C° 0 mm 1 mps 746 mmHg 55%
    19:00 +16°C° 0 mm 2 mps 746 mmHg 58%
    20:00 +15°C° 0 mm 2 mps 746 mmHg 60%
    21:00 +14°C° 0 mm 2 mps 746 mmHg 64%
    22:00 +13°C° 0 mm 1 mps 746 mmHg 67%
    23:00 +13°C° 0 mm 1 mps 745 mmHg 71%

    27 April, Saturday

    Time Temperature Precipitation Wind Pressure Humidity
    00:00 +12°C° 0 mm 1 mps 745 mmHg 72%
    01:00 +12°C° 0 mm 1 mps 745 mmHg 73%
    02:00 +12°C° 0 mm 1 mps 745 mmHg 74%
    03:00 +12°C° 0 mm 1 mps 745 mmHg 73%
    04:00 +12°C° 0 mm 1 mps 745 mmHg 73%
    05:00 +12°C° 0 mm 2 mps 745 mmHg 72%
    06:00 +14°C° 0 mm 2 mps 744 mmHg 68%
    07:00 +15°C° 0 mm 2 mps 744 mmHg 63%
    08:00 +17°C° 0 mm 2 mps 744 mmHg 59%
    09:00 +18°C° 0 mm 2 mps 744 mmHg 53%
    10:00 +19°C° 0 mm 3 mps 744 mmHg 46%
    11:00 +21°C° 0 mm 3 mps 744 mmHg 39%
    12:00 +21°C° 0 mm 3 mps 743 mmHg 38%
    13:00 +21°C° 0 mm 3 mps 743 mmHg 37%
    14:00 +22°C° 0 mm 3 mps 743 mmHg 36%
    15:00 +21°C° 0 mm 3 mps 743 mmHg 40%
    16:00 +21°C° 0 mm 3 mps 742 mmHg 43%
    17:00 +20°C° 0 mm 3 mps 742 mmHg 47%
    18:00 +19°C° 0 mm 3 mps 742 mmHg 54%
    19:00 +17°C° 0 mm 2 mps 742 mmHg 61%
    20:00 +15°C° 0 mm 2 mps 741 mmHg 68%
    21:00 +15°C° 0 mm 2 mps 741 mmHg 70%
    22:00 +14°C° 0 mm 2 mps 741 mmHg 72%
    23:00 +14°C° 0 mm 2 mps 741 mmHg 74%
    Show more